WZZ878M EDDF-EDDH

Flight info

Callsign WZZ878M
Flight time 1h 6m
Altitude 33000
Route MARUN3W/25C MARUN Y150 TOLGI DCT SAS/N0443F320 P605 NOLGO NOLGO6A
Aircraft A321/M-SDE3FGHIRWY/LB1

Departure

Time 2026-05-06 17:05
Airport Frankfurt Main Airport (EDDF)

Arrival

Time 2026-05-06 18:11
Airport Hamburg Helmut Schmidt Airport (EDDH)
Time Latitude Longitude Altitude Speed Heading
2026-05-06 16:31 50.04899 8.58795 352 ft 0 kts 165°
2026-05-06 16:57 50.04915 8.58788 358 ft 4 kts 161°
2026-05-06 16:57 50.04941 8.58775 353 ft 4 kts 175°
2026-05-06 16:57 50.04954 8.58777 354 ft 1 kts 251°
2026-05-06 16:57 50.04954 8.58778 355 ft 0 kts 252°
2026-05-06 17:01 50.04953 8.58775 346 ft 1 kts 251°
2026-05-06 17:02 50.04948 8.58751 352 ft 3 kts 251°
2026-05-06 17:02 50.04938 8.58713 349 ft 4 kts 240°
2026-05-06 17:02 50.04911 8.58690 346 ft 5 kts 180°
2026-05-06 17:02 50.04873 8.58698 355 ft 6 kts 167°
2026-05-06 17:03 50.04827 8.58718 352 ft 8 kts 159°
2026-05-06 17:03 50.04775 8.58754 347 ft 9 kts 157°
2026-05-06 17:03 50.04712 8.58771 346 ft 10 kts 179°
2026-05-06 17:03 50.04641 8.58763 348 ft 11 kts 187°
2026-05-06 17:04 50.04578 8.58705 348 ft 11 kts 215°
2026-05-06 17:04 50.04527 8.58659 348 ft 9 kts 206°
2026-05-06 17:04 50.04488 8.58585 350 ft 10 kts 246°
2026-05-06 17:04 50.04403 8.58225 348 ft 71 kts 250°
2026-05-06 17:05 50.04152 8.57167 351 ft 135 kts 249°
2026-05-06 17:05 50.03763 8.55583 485 ft 163 kts 254°
2026-05-06 17:05 50.03368 8.53907 1300 ft 166 kts 251°
2026-05-06 17:05 50.02960 8.52232 2199 ft 166 kts 251°
2026-05-06 17:06 50.02529 8.50574 3115 ft 165 kts 244°
2026-05-06 17:06 50.01812 8.49141 3798 ft 181 kts 222°
2026-05-06 17:06 50.00650 8.48142 4280 ft 201 kts 199°
2026-05-06 17:06 49.99243 8.47772 4938 ft 207 kts 191°
2026-05-06 17:07 49.97803 8.47464 5602 ft 210 kts 191°
2026-05-06 17:07 49.96298 8.47128 5943 ft 231 kts 193°
2026-05-06 17:07 49.94622 8.46482 6005 ft 266 kts 198°
2026-05-06 17:07 49.92828 8.45620 6012 ft 261 kts 206°
2026-05-06 17:08 49.91457 8.44007 6396 ft 243 kts 233°
2026-05-06 17:08 49.90718 8.41680 6933 ft 242 kts 258°
2026-05-06 17:08 49.90750 8.39071 7394 ft 247 kts 285°
2026-05-06 17:08 49.91586 8.36809 8105 ft 241 kts 311°
2026-05-06 17:09 49.93010 8.35305 8358 ft 260 kts 334°
2026-05-06 17:09 49.94731 8.34193 8498 ft 275 kts 335°
2026-05-06 17:09 49.96528 8.33049 8779 ft 282 kts 335°
2026-05-06 17:09 49.98359 8.31881 9121 ft 286 kts 335°
2026-05-06 17:10 50.00209 8.30689 9462 ft 288 kts 335°
2026-05-06 17:10 50.01438 8.29891 9686 ft 290 kts 334°
2026-05-06 17:10 50.03382 8.29004 10005 ft 296 kts 351°
2026-05-06 17:10 50.05452 8.29219 10320 ft 303 kts 14°
2026-05-06 17:11 50.07493 8.30169 10642 ft 307 kts 15°
2026-05-06 17:11 50.09550 8.31166 11036 ft 306 kts 15°
2026-05-06 17:11 50.11558 8.32151 11759 ft 302 kts 16°
2026-05-06 17:11 50.13570 8.33140 12494 ft 306 kts 16°
2026-05-06 17:12 50.15658 8.34166 12808 ft 324 kts 16°
2026-05-06 17:12 50.17869 8.35248 13110 ft 341 kts 16°
2026-05-06 17:12 50.20193 8.36386 13407 ft 358 kts 17°
2026-05-06 17:12 50.22481 8.37980 13738 ft 372 kts 31°
2026-05-06 17:13 50.24698 8.40171 14123 ft 381 kts 32°
2026-05-06 17:13 50.26943 8.42404 14509 ft 385 kts 32°
2026-05-06 17:13 50.29210 8.44666 14898 ft 388 kts 32°
2026-05-06 17:13 50.31488 8.46944 15291 ft 389 kts 32°
2026-05-06 17:14 50.33782 8.49241 15729 ft 393 kts 32°
2026-05-06 17:14 50.36091 8.51558 16196 ft 396 kts 32°
2026-05-06 17:14 50.38416 8.53894 16656 ft 399 kts 32°
2026-05-06 17:14 50.40761 8.56249 17135 ft 402 kts 32°
2026-05-06 17:15 50.43122 8.58620 17612 ft 405 kts 32°
2026-05-06 17:15 50.45505 8.61015 18098 ft 408 kts 32°
2026-05-06 17:15 50.47905 8.63430 18523 ft 411 kts 32°
2026-05-06 17:15 50.50318 8.65858 18949 ft 413 kts 32°
2026-05-06 17:16 50.52748 8.68305 19451 ft 416 kts 32°
2026-05-06 17:16 50.55186 8.70767 19949 ft 418 kts 32°
2026-05-06 17:16 50.57650 8.73262 20457 ft 423 kts 31°
2026-05-06 17:16 50.60138 8.75779 20972 ft 427 kts 31°
2026-05-06 17:17 50.62646 8.78318 21496 ft 430 kts 31°
2026-05-06 17:17 50.65172 8.80884 22034 ft 433 kts 31°
2026-05-06 17:17 50.67712 8.83466 22550 ft 436 kts 31°
2026-05-06 17:17 50.70280 8.86076 22940 ft 442 kts 31°
2026-05-06 17:18 50.72879 8.88720 23388 ft 446 kts 31°
2026-05-06 17:18 50.75495 8.91390 23797 ft 449 kts 31°
2026-05-06 17:18 50.78124 8.94082 24202 ft 452 kts 32°
2026-05-06 17:18 50.80733 8.96761 24599 ft 455 kts 32°
2026-05-06 17:19 50.83396 8.99497 25002 ft 457 kts 32°
2026-05-06 17:19 50.86071 9.02246 25401 ft 460 kts 32°
2026-05-06 17:19 50.88766 9.05018 25797 ft 463 kts 32°
2026-05-06 17:19 50.91475 9.07800 26195 ft 466 kts 32°
2026-05-06 17:20 50.94220 9.10551 26573 ft 468 kts 28°
2026-05-06 17:20 50.97220 9.12577 26931 ft 469 kts 19°
2026-05-06 17:20 51.00297 9.14352 27260 ft 473 kts 18°
2026-05-06 17:20 51.03405 9.16137 27586 ft 477 kts 18°
2026-05-06 17:21 51.06540 9.17937 27937 ft 480 kts 19°
2026-05-06 17:21 51.09684 9.19750 28302 ft 483 kts 18°
2026-05-06 17:21 51.12864 9.21540 28649 ft 485 kts 18°
2026-05-06 17:21 51.16065 9.23294 29014 ft 488 kts 18°
2026-05-06 17:22 51.19292 9.25039 29415 ft 490 kts 18°
2026-05-06 17:22 51.22517 9.26773 29928 ft 489 kts 17°
2026-05-06 17:22 51.25739 9.28513 30358 ft 488 kts 17°
2026-05-06 17:22 51.28948 9.30258 30799 ft 487 kts 17°
2026-05-06 17:23 51.32107 9.31985 31260 ft 485 kts 17°
2026-05-06 17:23 51.35291 9.33733 31732 ft 483 kts 18°
2026-05-06 17:23 51.38461 9.35484 32201 ft 481 kts 18°
2026-05-06 17:23 51.41616 9.37234 32677 ft 478 kts 18°
2026-05-06 17:24 51.44749 9.38972 33175 ft 475 kts 18°
2026-05-06 17:24 51.47871 9.40702 33674 ft 473 kts 18°
2026-05-06 17:24 51.50983 9.42424 34117 ft 470 kts 18°
2026-05-06 17:24 51.54055 9.44129 34536 ft 466 kts 18°
2026-05-06 17:25 51.57106 9.45825 34969 ft 462 kts 18°
2026-05-06 17:25 51.60125 9.47507 35430 ft 455 kts 18°
2026-05-06 17:25 51.63108 9.49172 35753 ft 455 kts 18°
2026-05-06 17:26 51.69151 9.52544 35819 ft 465 kts 17°
2026-05-06 17:26 51.75345 9.56007 35817 ft 476 kts 18°
2026-05-06 17:27 51.81608 9.59536 35817 ft 478 kts 18°
2026-05-06 17:27 51.87881 9.63086 35817 ft 478 kts 18°
2026-05-06 17:28 51.94171 9.66596 35816 ft 478 kts 17°
2026-05-06 17:28 52.00491 9.69942 35825 ft 478 kts 16°
2026-05-06 17:29 52.06784 9.73229 35829 ft 478 kts 16°
2026-05-06 17:29 52.13111 9.76583 35847 ft 479 kts 17°
2026-05-06 17:29 52.16280 9.78290 35636 ft 479 kts 17°
2026-05-06 17:30 52.19457 9.80008 34876 ft 483 kts 17°
2026-05-06 17:30 52.22661 9.81735 34116 ft 486 kts 17°
2026-05-06 17:30 52.25892 9.83474 33240 ft 490 kts 17°
2026-05-06 17:30 52.29111 9.85211 32607 ft 486 kts 17°
2026-05-06 17:31 52.32322 9.86946 31793 ft 486 kts 17°
2026-05-06 17:31 52.35529 9.88683 31006 ft 485 kts 17°
2026-05-06 17:31 52.38723 9.90413 30297 ft 482 kts 17°
2026-05-06 17:31 52.41882 9.92128 29685 ft 476 kts 17°
2026-05-06 17:32 52.45033 9.93466 28868 ft 472 kts
2026-05-06 17:32 52.48279 9.94183 28075 ft 470 kts
2026-05-06 17:32 52.51511 9.94875 27383 ft 467 kts
2026-05-06 17:32 52.54716 9.95556 26691 ft 464 kts
2026-05-06 17:33 52.57913 9.96227 26061 ft 460 kts
2026-05-06 17:33 52.61070 9.96883 25414 ft 456 kts
2026-05-06 17:33 52.64205 9.97539 24826 ft 451 kts
2026-05-06 17:33 52.67302 9.98193 24254 ft 447 kts
2026-05-06 17:34 52.70369 9.98846 23695 ft 443 kts
2026-05-06 17:34 52.73411 9.99497 23095 ft 438 kts
2026-05-06 17:34 52.76417 10.00143 22572 ft 432 kts
2026-05-06 17:34 52.79373 10.00778 22069 ft 426 kts
2026-05-06 17:35 52.82292 10.01406 21563 ft 421 kts
2026-05-06 17:35 52.85182 10.02023 21093 ft 417 kts
2026-05-06 17:35 52.88045 10.02634 20609 ft 413 kts
2026-05-06 17:36 52.93701 10.03842 19657 ft 407 kts
2026-05-06 17:36 52.96498 10.04443 19172 ft 404 kts
2026-05-06 17:36 52.99237 10.05032 18692 ft 401 kts
2026-05-06 17:36 53.01998 10.05629 18197 ft 399 kts
2026-05-06 17:37 53.04746 10.06221 17659 ft 396 kts
2026-05-06 17:37 53.07456 10.06931 17110 ft 394 kts 11°
2026-05-06 17:37 53.10139 10.07795 16515 ft 392 kts
2026-05-06 17:37 53.12831 10.08388 15957 ft 389 kts
2026-05-06 17:38 53.15518 10.08850 15397 ft 387 kts
2026-05-06 17:38 53.18184 10.09283 14851 ft 384 kts
2026-05-06 17:38 53.20834 10.09748 14313 ft 382 kts
2026-05-06 17:38 53.23436 10.10253 13850 ft 365 kts
2026-05-06 17:39 53.25856 10.10762 13645 ft 336 kts
2026-05-06 17:39 53.28101 10.11256 13251 ft 319 kts
2026-05-06 17:39 53.30278 10.11745 12700 ft 312 kts
2026-05-06 17:39 53.32398 10.12220 12254 ft 302 kts
2026-05-06 17:40 53.34444 10.12673 11844 ft 291 kts
2026-05-06 17:40 53.36423 10.12987 11445 ft 281 kts
2026-05-06 17:40 53.38326 10.12619 11065 ft 272 kts 347°
2026-05-06 17:40 53.40090 10.11563 10735 ft 271 kts 333°
2026-05-06 17:41 53.41736 10.09803 10521 ft 288 kts 322°
2026-05-06 17:41 53.43163 10.07419 10288 ft 290 kts 313°
2026-05-06 17:41 53.44513 10.04907 10049 ft 290 kts 313°
2026-05-06 17:41 53.45862 10.02399 9799 ft 289 kts 313°
2026-05-06 17:42 53.47199 9.99918 9596 ft 283 kts 314°
2026-05-06 17:42 53.48394 9.97375 9454 ft 275 kts 298°
2026-05-06 17:42 53.48846 9.94334 9319 ft 267 kts 269°
2026-05-06 17:42 53.48417 9.91368 9140 ft 260 kts 240°
2026-05-06 17:43 53.47354 9.88993 9006 ft 259 kts 230°
2026-05-06 17:43 53.46191 9.86666 8808 ft 260 kts 230°
2026-05-06 17:43 53.45028 9.84338 8643 ft 261 kts 230°
2026-05-06 17:43 53.43859 9.82011 8468 ft 260 kts 230°
2026-05-06 17:44 53.42701 9.79700 8289 ft 259 kts 230°
2026-05-06 17:44 53.41544 9.77385 8116 ft 258 kts 230°
2026-05-06 17:44 53.40396 9.75085 7838 ft 256 kts 230°
2026-05-06 17:44 53.39253 9.72801 7632 ft 255 kts 230°
2026-05-06 17:45 53.38112 9.70528 7563 ft 256 kts 230°
2026-05-06 17:45 53.36959 9.68229 7393 ft 258 kts 230°
2026-05-06 17:45 53.35811 9.65945 7166 ft 255 kts 230°
2026-05-06 17:45 53.34671 9.63671 6934 ft 254 kts 229°
2026-05-06 17:46 53.33540 9.61413 6713 ft 253 kts 229°
2026-05-06 17:46 53.32410 9.59161 6491 ft 255 kts 230°
2026-05-06 17:46 53.31480 9.56440 6201 ft 279 kts 255°
2026-05-06 17:46 53.31342 9.53233 5887 ft 276 kts 281°
2026-05-06 17:47 53.31967 9.50265 5573 ft 269 kts 305°
2026-05-06 17:47 53.33140 9.47880 5270 ft 263 kts 321°
2026-05-06 17:47 53.34633 9.46182 4965 ft 258 kts 337°
2026-05-06 17:47 53.36288 9.45263 4697 ft 242 kts 354°
2026-05-06 17:48 53.37905 9.45137 4476 ft 227 kts
2026-05-06 17:48 53.39424 9.45704 4299 ft 222 kts 23°
2026-05-06 17:48 53.40786 9.46875 4087 ft 219 kts 37°
2026-05-06 17:48 53.41884 9.48607 3873 ft 216 kts 58°
2026-05-06 17:49 53.42306 9.50976 3674 ft 215 kts 82°
2026-05-06 17:49 53.42547 9.53424 3471 ft 215 kts 79°
2026-05-06 17:49 53.42814 9.55926 3276 ft 217 kts 79°
2026-05-06 17:49 53.43194 9.58349 3080 ft 214 kts 65°
2026-05-06 17:50 53.43959 9.60443 2999 ft 214 kts 54°
2026-05-06 17:50 53.44898 9.62412 3005 ft 213 kts 51°
2026-05-06 17:50 53.45852 9.64317 3007 ft 213 kts 51°
2026-05-06 17:50 53.46793 9.66192 3006 ft 213 kts 51°
2026-05-06 17:51 53.47748 9.68097 3005 ft 213 kts 51°
2026-05-06 17:51 53.48703 9.70005 3005 ft 213 kts 51°
2026-05-06 17:51 53.49658 9.71914 3007 ft 214 kts 51°
2026-05-06 17:51 53.50615 9.73830 3006 ft 214 kts 51°
2026-05-06 17:52 53.51571 9.75744 3007 ft 213 kts 51°
2026-05-06 17:52 53.52507 9.77620 2945 ft 207 kts 51°
2026-05-06 17:52 53.53421 9.79452 2726 ft 203 kts 51°
2026-05-06 17:52 53.54311 9.81238 2486 ft 194 kts 51°
2026-05-06 17:53 53.55144 9.82910 2219 ft 180 kts 52°
2026-05-06 17:53 53.55912 9.84453 1963 ft 165 kts 52°
2026-05-06 17:53 53.56624 9.85885 1779 ft 150 kts 51°
2026-05-06 17:53 53.57275 9.87196 1571 ft 144 kts 51°
2026-05-06 17:54 53.57910 9.88474 1366 ft 141 kts 51°
2026-05-06 17:54 53.58536 9.89735 1161 ft 141 kts 52°
2026-05-06 17:54 53.59163 9.90999 960 ft 141 kts 50°
2026-05-06 17:54 53.59791 9.92265 755 ft 141 kts 51°
2026-05-06 17:55 53.60419 9.93532 573 ft 140 kts 50°
2026-05-06 17:55 53.61043 9.94793 382 ft 141 kts 52°
2026-05-06 17:55 53.61680 9.96076 306 ft 151 kts 52°
2026-05-06 17:55 53.62335 9.97429 1134 ft 147 kts 52°
2026-05-06 17:56 53.62990 9.98719 2150 ft 142 kts 51°
2026-05-06 17:56 53.63604 9.99924 2862 ft 135 kts 52°
2026-05-06 17:56 53.64246 10.01240 3128 ft 155 kts 52°
2026-05-06 17:56 53.64969 10.02738 3307 ft 173 kts 52°
2026-05-06 17:57 53.65756 10.04366 3551 ft 188 kts 52°
2026-05-06 17:57 53.66615 10.06136 3818 ft 202 kts 52°
2026-05-06 17:57 53.67524 10.08006 3967 ft 209 kts 51°
2026-05-06 17:57 53.68452 10.09915 3994 ft 213 kts 53°
2026-05-06 17:58 53.69010 10.12201 3953 ft 215 kts 88°
2026-05-06 17:58 53.68886 10.14735 3997 ft 218 kts 94°
2026-05-06 17:58 53.68785 10.16425 4004 ft 219 kts 93°
2026-05-06 17:58 53.68639 10.18977 4008 ft 218 kts 93°
2026-05-06 17:59 53.68494 10.21527 4009 ft 218 kts 93°
2026-05-06 17:59 53.68129 10.24011 4007 ft 223 kts 118°
2026-05-06 17:59 53.67016 10.25835 4008 ft 230 kts 150°
2026-05-06 17:59 53.65439 10.26369 4009 ft 239 kts 184°
2026-05-06 18:00 53.63876 10.25395 4006 ft 245 kts 216°
2026-05-06 18:00 53.62698 10.23299 4011 ft 248 kts 232°
2026-05-06 18:00 53.61677 10.20961 4009 ft 248 kts 234°
2026-05-06 18:00 53.60674 10.18590 4008 ft 249 kts 234°
2026-05-06 18:01 53.59676 10.16210 4008 ft 249 kts 234°
2026-05-06 18:01 53.58681 10.13826 4008 ft 249 kts 234°
2026-05-06 18:01 53.57686 10.11442 4007 ft 249 kts 234°
2026-05-06 18:01 53.56688 10.09053 4020 ft 249 kts 234°
2026-05-06 18:02 53.55694 10.06667 4011 ft 248 kts 234°
2026-05-06 18:02 53.54704 10.04288 4010 ft 248 kts 234°
2026-05-06 18:02 53.53714 10.01909 4009 ft 248 kts 234°
2026-05-06 18:02 53.52726 9.99532 4008 ft 248 kts 234°
2026-05-06 18:03 53.51749 9.97183 4005 ft 248 kts 234°
2026-05-06 18:03 53.50759 9.94809 4006 ft 248 kts 234°
2026-05-06 18:03 53.49772 9.92431 4005 ft 248 kts 234°
2026-05-06 18:03 53.48782 9.90059 4005 ft 248 kts 234°
2026-05-06 18:04 53.47788 9.87686 4008 ft 248 kts 234°
2026-05-06 18:04 53.46794 9.85315 4006 ft 248 kts 234°
2026-05-06 18:04 53.45798 9.82947 4006 ft 248 kts 234°
2026-05-06 18:04 53.44806 9.80587 4007 ft 248 kts 234°
2026-05-06 18:05 53.43879 9.78168 3856 ft 246 kts 249°
2026-05-06 18:05 53.43641 9.75394 3520 ft 239 kts 280°
2026-05-06 18:05 53.44265 9.72884 3094 ft 233 kts 312°
2026-05-06 18:05 53.45479 9.71190 3009 ft 227 kts 338°
2026-05-06 18:06 53.46982 9.70497 3003 ft 222 kts
2026-05-06 18:06 53.48485 9.70865 3005 ft 218 kts 24°
2026-05-06 18:06 53.49757 9.72175 3008 ft 214 kts 45°
2026-05-06 18:06 53.50728 9.74049 3003 ft 208 kts 51°
2026-05-06 18:07 53.51615 9.75829 3001 ft 189 kts 51°
2026-05-06 18:07 53.52414 9.77431 2973 ft 172 kts 51°
2026-05-06 18:07 53.53153 9.78913 2795 ft 164 kts 52°
2026-05-06 18:07 53.53886 9.80384 2614 ft 160 kts 51°
2026-05-06 18:08 53.54599 9.81817 2397 ft 159 kts 52°
2026-05-06 18:08 53.55296 9.83218 2171 ft 158 kts 51°
2026-05-06 18:08 53.56001 9.84633 1952 ft 157 kts 52°
2026-05-06 18:08 53.56698 9.86036 1740 ft 156 kts 52°
2026-05-06 18:09 53.57375 9.87396 1523 ft 147 kts 52°
2026-05-06 18:09 53.58017 9.88689 1324 ft 141 kts 51°
2026-05-06 18:09 53.58646 9.89957 1121 ft 141 kts 51°
2026-05-06 18:09 53.59275 9.91213 925 ft 141 kts 50°
2026-05-06 18:10 53.59901 9.92474 722 ft 140 kts 51°
2026-05-06 18:10 53.60520 9.93749 542 ft 141 kts 51°
2026-05-06 18:10 53.61151 9.95002 377 ft 140 kts 54°
2026-05-06 18:10 53.61766 9.96266 148 ft 140 kts 51°
2026-05-06 18:11 53.62368 9.97470 42 ft 119 kts 49°
2026-05-06 18:11 53.62762 9.98259 44 ft 66 kts 50°
2026-05-06 18:11 53.63033 9.98807 43 ft 57 kts 51°
2026-05-06 18:11 53.63215 9.99170 47 ft 26 kts 49°
2026-05-06 18:12 53.63288 9.99372 47 ft 19 kts 82°
2026-05-06 18:12 53.63288 9.99559 44 ft 12 kts 102°
2026-05-06 18:12 53.63276 9.99679 45 ft 8 kts 97°
2026-05-06 18:12 53.63247 9.99751 45 ft 7 kts 155°
2026-05-06 18:13 53.63234 9.99760 45 ft 1 kts 157°
2026-05-06 18:13 53.63228 9.99765 45 ft 1 kts 156°
2026-05-06 18:13 53.63213 9.99776 45 ft 3 kts 155°
2026-05-06 18:13 53.63188 9.99796 45 ft 5 kts 154°
2026-05-06 18:14 53.63152 9.99825 43 ft 7 kts 154°
2026-05-06 18:14 53.63109 9.99870 45 ft 8 kts 146°
2026-05-06 18:14 53.63059 9.99924 45 ft 9 kts 142°
2026-05-06 18:14 53.62996 9.99958 43 ft 10 kts 160°
2026-05-06 18:15 53.62954 10.00028 46 ft 8 kts 90°
2026-05-06 18:15 53.62986 10.00089 46 ft 3 kts 33°
2026-05-06 18:15 53.63012 10.00116 46 ft 5 kts 32°
2026-05-06 18:15 53.63019 10.00123 46 ft 0 kts 33°
2026-05-06 18:16 53.63020 10.00125 46 ft 0 kts 33°
2026-05-06 18:16 53.63021 10.00126 46 ft 1 kts 35°
2026-05-06 18:16 53.63027 10.00143 44 ft 3 kts 63°
2026-05-06 18:16 53.63028 10.00194 46 ft 5 kts 100°
2026-05-06 18:17 53.63015 10.00258 46 ft 6 kts 113°
2026-05-06 18:17 53.63001 10.00316 46 ft 5 kts 115°
2026-05-06 18:17 53.62992 10.00342 46 ft 2 kts 120°
2026-05-06 18:17 53.62989 10.00350 46 ft 0 kts 120°